La Grande, OR

1:06 PM PST on December 06, 2019 (GMT -0800)
La Grande-Union County

Weather History for KLGD - September, 2019

Change the Weather History Date:

Monday, September 30, 2019

  Actual Average Record
Temperature  
Mean Temperature 40 °F -  
Max Temperature 45 °F 69 °F 89 °F (2008)
Min Temperature 35 °F 36 °F 25 °F (1985)
Degree Days  
Heating Degree Days 25    
Moisture  
Dew Point 33 °F    
Average Humidity 75    
Maximum Humidity 89    
Minimum Humidity 63    
Precipitation  
Precipitation 0.01 in - - ()
Sea Level Pressure  
Sea Level Pressure 30.07 in    
Wind  
Wind Speed 7 mph (NW)    
Max Wind Speed 17 mph    
Max Gust Speed -    
Visibility 10 miles    
Events Rain    
Averages and records for this station are not official NWS values.
T = Trace of Precipitation, MM = Missing Value Source: NWS Daily Summary

Daily Weather History Graph

Daily Weather History Graph

Search for Another Location

Airport or City:

Astronomy

Sep. 30, 2019 Rise Set
Actual Time 6:48 AM PDT 6:34 PM PDT
Civil Twilight 6:19 AM PDT 7:03 PM PDT
Nautical Twilight 5:45 AM PDT 7:38 PM PDT
Astronomical Twilight 5:10 AM PDT 8:12 PM PDT
Moon 9:03 AM PDT (9/30) 8:07 PM PDT (9/30)
Length of Visible Light 12h 44m
Length of Day
11h 45m
Waxing Crescent, 6% of the Moon is Illuminated
Sep 30
Waxing Crescent
Oct 5
First Quarter
Oct 13
Full
Oct 21
Last Quarter
Oct 27
New

Hourly Weather History & Observations

Time (PDT) Temp. Windchill Dew Point Humidity Pressure Visibility Wind Dir Wind Speed Gust Speed Precip Events Conditions
12:56 AM 36.0 °F 32.1 °F 30.9 °F 82% 29.98 in 10.0 mi NNW 4.6 mph - N/A   Overcast
1:56 AM 37.0 °F 31.0 °F 30.9 °F 79% 29.99 in 10.0 mi North 8.1 mph - N/A   Overcast
2:56 AM 37.0 °F 32.4 °F 30.9 °F 79% 29.99 in 10.0 mi NNW 5.8 mph - N/A   Overcast
3:56 AM 37.0 °F 30.4 °F 30.0 °F 76% 30.00 in 10.0 mi NW 9.2 mph - N/A   Overcast
4:56 AM 37.0 °F 33.3 °F 30.9 °F 79% 30.01 in 10.0 mi West 4.6 mph - N/A   Overcast
5:56 AM 35.1 °F - 30.9 °F 85% 30.03 in 10.0 mi Calm Calm - N/A   Overcast
6:56 AM 35.1 °F 31.0 °F 30.9 °F 85% 30.04 in 10.0 mi East 4.6 mph - N/A   Overcast
7:56 AM 35.1 °F - 32.0 °F 89% 30.06 in 10.0 mi Calm Calm - 0.00 in Rain Light Rain
8:56 AM 37.0 °F 31.0 °F 33.1 °F 86% 30.07 in 10.0 mi NW 8.1 mph - 0.00 in Rain Light Rain
9:56 AM 37.9 °F 34.4 °F 34.0 °F 86% 30.09 in 10.0 mi NW 4.6 mph - 0.01 in Rain Light Rain
10:11 AM 39.2 °F 37.0 °F 33.8 °F 81% 30.03 in 10.0 mi NW 3.5 mph - 0.00 in   Overcast
10:37 AM 39.2 °F 37.0 °F 33.8 °F 81% 30.04 in 10.0 mi NNW 3.5 mph - 0.00 in   Overcast
10:48 AM 41.0 °F 38.0 °F 33.8 °F 76% 30.03 in 10.0 mi Variable 4.6 mph - 0.00 in   Overcast
10:56 AM 39.9 °F 37.8 °F 34.0 °F 79% 30.08 in 10.0 mi NW 3.5 mph - 0.00 in   Overcast
11:56 AM 42.1 °F 40.2 °F 34.0 °F 73% 30.08 in 10.0 mi NW 3.5 mph - N/A   Overcast
12:56 PM 44.1 °F 39.5 °F 34.0 °F 68% 30.07 in 10.0 mi NW 8.1 mph - N/A   Overcast
1:26 PM 44.6 °F 40.7 °F 33.8 °F 66% 30.03 in 10.0 mi NW 6.9 mph - N/A   Overcast
1:41 PM 44.6 °F 39.7 °F 33.8 °F 66% 30.03 in 10.0 mi NW 9.2 mph - N/A   Overcast
1:56 PM 45.0 °F 40.6 °F 33.1 °F 63% 30.06 in 10.0 mi WNW 8.1 mph - N/A   Overcast
2:08 PM 44.6 °F 39.2 °F 33.8 °F 66% 30.03 in 10.0 mi NW 10.4 mph - N/A   Overcast
2:56 PM 44.1 °F 38.1 °F 34.0 °F 68% 30.07 in 10.0 mi WNW 11.5 mph - N/A   Overcast
3:26 PM 42.8 °F 34.8 °F 35.6 °F 76% 30.04 in 10.0 mi WNW 17.3 mph - 0.00 in Rain Light Rain
3:56 PM 43.0 °F 35.1 °F 34.0 °F 71% 30.08 in 10.0 mi WNW 17.3 mph - 0.00 in   Mostly Cloudy
4:56 PM 42.1 °F 34.5 °F 33.1 °F 70% 30.09 in 10.0 mi WNW 15.0 mph - N/A   Mostly Cloudy
5:56 PM 41.0 °F 33.1 °F 33.1 °F 73% 30.11 in 10.0 mi WNW 15.0 mph - N/A   Overcast
6:56 PM 41.0 °F 33.9 °F 32.0 °F 70% 30.12 in 10.0 mi WNW 12.7 mph - N/A   Overcast
7:40 PM 41.0 °F 33.5 °F 30.2 °F 65% 30.08 in 10.0 mi WNW 13.8 mph - N/A   Overcast
7:56 PM 41.0 °F 34.3 °F 30.9 °F 67% 30.14 in 10.0 mi WNW 11.5 mph - N/A   Overcast
8:56 PM 41.0 °F 34.7 °F 32.0 °F 70% 30.14 in 10.0 mi WNW 10.4 mph - N/A   Overcast
9:42 PM 41.0 °F 37.1 °F 32.0 °F 70% 30.10 in 10.0 mi WNW 5.8 mph - N/A   Overcast
9:56 PM 39.9 °F 36.7 °F 32.0 °F 73% 30.14 in 10.0 mi NNW 4.6 mph - N/A   Overcast
10:10 PM 39.2 °F 34.2 °F 32.0 °F 75% 30.10 in 10.0 mi NNW 6.9 mph - N/A   Overcast
10:56 PM 39.0 °F 33.4 °F 33.1 °F 79% 30.14 in 10.0 mi NW 8.1 mph - N/A   Overcast
11:56 PM 39.9 °F 33.9 °F 32.0 °F 73% 30.13 in 10.0 mi NW 9.2 mph - N/A   Overcast